Flight Briefing for CPX783

Departure Arrival
Noi Bai International Airport (VVNB)
Click to view FAA NOTAMS
Incheon International Airport (RKSI)
Click to view FAA NOTAMS
Departure Time Arrival Time
N/A N/A
Aircraft Distance
B767-300BDSF 1449nm
Departure METAR Arrival METAR
VVNB 230700Z 07004KT 030V110 9999 BKN034 31/23 Q1007 NOSIG RKSI 230700Z 23008KT CAVOK 24/11 Q1008 NOSIG
Suggested Route
BUNBO1A NAKHA R474 LON R474 GYA B330 POU A599 PUD A593 AKARA A326 IKADI A326 MUDAL A591 AGAVO G597 GONAV GONAV2M


View recent IFR Routes data
Notes



Charts and Procedures

Charts for VVNB
No chart available
Charts for RKSI
No chart available

Windy.com Weather Map